This is the latest recevied weather packets stored in our database for station/object N6XE-13. If no packets are shown the sender has not sent any weather packets the latest 10 day(s).
| Time | Temp. | Humidity | Pressure | Rain* | Wind** | Luminosity | Snow |
|---|---|---|---|---|---|---|---|
| 1777699806 | 18.33° C | 73% | 1014.3 hPa | 0 mm | - | - | - |
| 1777698006 | 18.89° C | 70% | 1014.2 hPa | 0 mm | - | - | - |
| 1777696205 | 20° C | 65% | 1014.1 hPa | 0 mm | - | - | - |
| 1777694405 | 21.67° C | 58% | 1013.6 hPa | 0 mm | - | - | - |
| 1777692605 | 22.78° C | 54% | 1013.3 hPa | 0 mm | - | - | - |
| 1777690805 | 24.44° C | 64% | 1012.9 hPa | 0 mm | - | - | - |
| 1777689005 | 26.11° C | 55% | 1012.8 hPa | 0 mm | - | - | - |
| 1777687205 | 28.33° C | 49% | 1012.7 hPa | 0 mm | - | - | - |
| 1777685406 | 28.89° C | 48% | 1012.6 hPa | 0 mm | - | - | - |
| 1777683605 | 29.44° C | 47% | 1012.7 hPa | 0 mm | - | - | - |
| 1777681805 | 29.44° C | 49% | 1012.9 hPa | 0 mm | - | - | - |
| 1777680005 | 30° C | 48% | 1013.1 hPa | 0 mm | - | - | - |
| 1777678206 | 30° C | 48% | 1013.4 hPa | 0 mm | - | - | - |
| 1777676406 | 29.44° C | 49% | 1013.8 hPa | 0 mm | - | - | - |
| 1777674606 | 30° C | 48% | 1014.2 hPa | 0 mm | - | - | - |
| 1777672806 | 30° C | 45% | 1014.7 hPa | 0 mm | - | - | - |
| 1777671006 | 29.44° C | 45% | 1014.9 hPa | 0 mm | - | - | - |
| 1777669206 | 29.44° C | 45% | 1015 hPa | 0 mm | - | - | - |
| 1777667406 | 28.33° C | 46% | 1015.2 hPa | 0 mm | - | - | - |
| 1777665606 | 27.78° C | 48% | 1015.9 hPa | 0 mm | - | - | - |
| 1777663806 | 26.11° C | 52% | 1016.2 hPa | 0 mm | - | - | - |
| 1777660206 | 24.44° C | 52% | 1016.7 hPa | 0 mm | - | - | - |
| 1777658406 | 23.89° C | 54% | 1016.8 hPa | 0 mm | - | - | - |
| 1777656605 | 22.22° C | 59% | 1016.8 hPa | 0 mm | - | - | - |
| 1777654805 | 21.67° C | 62% | 1016.9 hPa | 0 mm | - | - | - |
* Rain latest hour (hover to see other rain measurements)
** Current wind speed in m/s (hover to see current wind gust speed)